Waarnemingen

Advertentie
Mijn weer
Landsort, Zweden (2567): temperatuur & dauwpunt: 17.05.2018 22:00:00 - 23.05.2018 22:00:00 (CEST)Landsort, Zweden (2567): windsnelheid & windstoten: 17.05.2018 22:00:00 - 23.05.2018 22:00:00 (CEST)Landsort, Zweden (2567): windrichting: 17.05.2018 22:00:00 - 23.05.2018 22:00:00 (CEST)Landsort, Zweden (2567): luchtdruk: 17.05.2018 22:00:00 - 23.05.2018 22:00:00 (CEST)Landsort, Zweden (2567): zicht: 17.05.2018 22:00:00 - 23.05.2018 22:00:00 (CEST)Landsort, Zweden (2567): neerslag: 17.05.2018 22:00:00 - 23.05.2018 22:00:00 (CEST)
Datum & Tijd tt [°C] td [°C] ff [km/u] ff [kn] fx [km/u] fx [kn] dd ppp [hPa] vv [km] rr [mm]
23.05.2018 22:00:00 12,8 9,8 5 3 8 5 N 1028,7 50 0,0
23.05.2018 21:00:00 12,8 10,0 2 1 14 8 O 1027,9 50 0,0
23.05.2018 20:00:00 13,1 10,5 8 4 16 9 OZO 1027,2 42 0,0
23.05.2018 19:00:00 13,6 11,4 12 7 22 12 OZO 1026,7 30 0,0
23.05.2018 18:00:00 13,6 11,5 14 8 38 21 OZO 1026,3 29 0,0
23.05.2018 17:00:00 14,1 11,1 20 11 38 21 O 1026,0 33 0,0
23.05.2018 16:00:00 15,0 12,1 32 18 38 20 O 1025,6 22 0,0
23.05.2018 15:00:00 20,9 10,2 19 11 29 15 NNW 1024,7 30 0,0
23.05.2018 14:00:00 19,4 10,0 18 10 29 15 NW 1024,3 33 0,0
23.05.2018 13:00:00 18,8 10,9 13 7 20 11 WNW 1024,1 37 0,0
23.05.2018 12:00:00 18,0 9,2 13 7 17 9 W 1023,5 30 0,0
23.05.2018 11:00:00 17,4 9,2 8 5 14 8 W 1023,0 39 0,0
23.05.2018 10:00:00 16,4 10,3 9 5 16 9 W 1022,6 38 0,0
23.05.2018 09:00:00 15,7 10,6 11 6 16 9 W 1021,9 38 0,0
23.05.2018 08:00:00 14,0 11,7 8 4 13 7 W 1021,4 48 0,0
23.05.2018 07:00:00 14,2 11,9 9 5 13 7 WZW 1021,0 50 0,0
23.05.2018 06:00:00 13,4 11,7 11 6 12 7 W 1020,3 34 0,0
23.05.2018 05:00:00 12,7 11,8 6 4 10 6 W 1019,9 45 0,0
23.05.2018 04:00:00 12,7 11,3 7 4 11 6 W 1019,7 45 0,0
23.05.2018 03:00:00 12,8 11,6 9 5 14 8 WNW 1019,6 46 0,0
23.05.2018 02:00:00 13,0 11,1 11 6 16 8 W 1019,4 50 0,0
23.05.2018 01:00:00 13,4 10,9 11 6 22 12 WZW 1019,2 50 0,0
23.05.2018 00:00:00 13,4 11,2 13 7 22 12 WZW 1019,2 50 0,0
22.05.2018 23:00:00 13,5 11,0 12 7 15 8 Z 1018,9 50 0,0
22.05.2018 22:00:00 14,0 11,0 10 5 15 8 Z 1018,9 50 0,0
22.05.2018 21:00:00 14,2 11,4 11 6 14 7 ZZO 1018,8 50 0,0
22.05.2018 20:00:00 14,3 10,5 10 5 13 7 ZZO 1018,9 40 0,0
22.05.2018 19:00:00 14,9 9,5 10 6 12 6 ZO 1018,9 41 0,0
22.05.2018 18:00:00 14,9 10,9 8 4 11 6 O 1019,2 49 0,0
22.05.2018 17:00:00 14,7 12,5 7 4 12 6 O 1019,5 39 0,0
22.05.2018 16:00:00 15,0 11,6 9 5 12 6 O 1019,8 35 0,0
22.05.2018 15:00:00 14,1 11,2 7 4 11 6 O 1020,2 42 0,0
22.05.2018 14:00:00 13,7 11,2 8 5 15 8 ONO 1020,5 38 0,0
22.05.2018 13:00:00 14,0 11,1 11 6 15 8 OZO 1020,7 43 0,0
22.05.2018 12:00:00 14,1 10,4 11 6 17 9 O 1021,2 44 0,0
22.05.2018 11:00:00 14,2 10,2 11 6 21 11 O 1021,6 46 0,0
22.05.2018 10:00:00 13,3 9,7 16 9 21 11 ONO 1021,8 38 0,0
22.05.2018 09:00:00 12,9 8,9 18 10 20 11 NO 1022,0 45 0,0
22.05.2018 08:00:00 12,0 10,9 12 6 16 8 ONO 1022,5 41 0,0
22.05.2018 07:00:00 12,2 10,9 13 7 15 8 NO 1022,6 41 0,0
22.05.2018 06:00:00 11,6 10,8 9 5 10 5 NO 1022,9 50 0,0
22.05.2018 05:00:00 11,4 10,2 6 3 8 4 ONO 1023,1 50 0,0
22.05.2018 04:00:00 11,3 11,0 5 3 9 5 O 1023,4 50 0,0
22.05.2018 03:00:00 11,3 11,2 8 4 9 5 O 1023,6 22 0,0
22.05.2018 02:00:00 11,4 11,2 6 3 9 5 O 1023,9 20 0,0
22.05.2018 01:00:00 11,4 11,2 5 3 10 5 O 1024,2 24 0,0
22.05.2018 00:00:00 11,5 11,2 5 3 13 7 OZO 1024,6 34 0,0
21.05.2018 23:00:00 12,0 11,7 8 5 14 7 ZZO 1025,0 38 0,0
21.05.2018 22:00:00 12,5 12,0 10 5 14 8 ZZO 1025,1 36 0,0
21.05.2018 21:00:00 12,8 11,7 11 6 14 8 ZZO 1025,0 35 0,0
21.05.2018 20:00:00 12,8 11,5 9 5 13 7 ZO 1025,0 42 0,0
21.05.2018 19:00:00 14,8 10,3 6 3 16 8 Z 1025,3 38 0,0
21.05.2018 18:00:00 16,2 8,8 9 5 17 9 WZW 1025,7 46 0,0
21.05.2018 17:00:00 16,6 9,7 8 5 19 10 ZW 1026,3 37 0,0
21.05.2018 16:00:00 15,9 11,2 13 7 19 10 ZW 1026,9 35 0,0
21.05.2018 15:00:00 17,2 8,5 13 7 16 9 Z 1027,2 45 0,0
21.05.2018 14:00:00 17,6 8,0 10 6 13 7 Z 1027,8 47 0,0
21.05.2018 13:00:00 20,6 6,7 0 0 10 6 N 1028,0 44 0,0
21.05.2018 12:00:00 18,2 8,6 3 1 16 8 WZW 1028,3 46 0,0
21.05.2018 11:00:00 15,3 9,9 9 5 17 9 W 1028,6 39 0,0
21.05.2018 10:00:00 13,7 10,2 12 7 20 11 W 1028,7 35 0,0
21.05.2018 09:00:00 13,3 10,3 14 8 20 11 W 1028,6 40 0,0
21.05.2018 08:00:00 13,4 10,1 11 6 16 9 WZW 1028,4 37 0,0
21.05.2018 07:00:00 13,9 9,0 10 6 15 8 NNW 1028,3 47 0,0
21.05.2018 06:00:00 14,3 9,4 10 6 15 8 NNW 1028,0 50 0,0
21.05.2018 05:00:00 12,0 10,5 8 5 15 8 NW 1027,6 48 0,0
21.05.2018 04:00:00 12,4 10,3 11 6 19 11 WNW 1027,5 50 0,0
21.05.2018 03:00:00 12,2 10,0 11 6 20 11 W 1027,3 50 0,0
21.05.2018 02:00:00 12,2 9,7 11 6 26 14 WZW 1027,3 50 0,0
21.05.2018 01:00:00 12,5 9,3 18 10 31 17 ZW 1027,0 50 0,0
21.05.2018 00:00:00 12,5 9,3 19 10 33 18 ZW 1026,9 50 0,0
20.05.2018 23:00:00 12,9 8,9 23 13 34 18 ZZW 1026,7 50 0,0
20.05.2018 22:00:00 13,4 8,2 23 12 34 18 ZZW 1026,6 50 0,0
20.05.2018 21:00:00 13,3 8,5 25 13 34 18 ZW 1026,5 50 0,0
20.05.2018 20:00:00 14,0 8,2 22 12 34 18 ZZW 1026,2 47 0,0
20.05.2018 19:00:00 14,5 8,5 21 11 36 19 ZW 1026,2 47 0,0
20.05.2018 18:00:00 14,3 8,3 22 12 38 20 ZW 1026,3 46 0,0
20.05.2018 17:00:00 15,0 8,2 21 12 38 21 ZW 1026,8 45 0,0
20.05.2018 16:00:00 15,2 8,0 27 14 38 21 ZZW 1027,0 41 0,0
20.05.2018 15:00:00 15,0 8,7 27 15 37 20 ZZW 1027,1 39 0,0
20.05.2018 14:00:00 15,5 7,2 26 14 37 20 ZZW 1027,2 38 0,0
20.05.2018 13:00:00 14,6 7,3 22 12 31 17 ZZW 1027,5 45 0,0
20.05.2018 12:00:00 14,9 8,0 20 11 31 17 ZW 1027,3 34 0,0
20.05.2018 11:00:00 14,0 8,6 19 11 26 14 ZW 1027,6 39 0,0
20.05.2018 10:00:00 13,6 9,0 11 6 19 10 ZW 1027,6 40 0,0
20.05.2018 09:00:00 13,4 8,6 10 5 16 8 WZW 1027,1 42 0,0
20.05.2018 08:00:00 13,4 7,5 9 5 22 12 WZW 1026,9 46 0,0
20.05.2018 07:00:00 12,4 7,5 11 6 26 14 W 1026,7 43 0,0
20.05.2018 06:00:00 12,0 7,0 20 11 26 14 W 1026,1 50 0,0
20.05.2018 05:00:00 11,9 6,9 21 12 25 14 W 1025,4 50 0,0
20.05.2018 04:00:00 10,6 9,3 10 5 26 14 W 1024,9 50 0,0
20.05.2018 03:00:00 11,2 8,5 21 11 27 15 W 1024,6 50 0,0
20.05.2018 02:00:00 11,5 7,7 23 12 30 16 W 1024,4 50 0,0
20.05.2018 01:00:00 11,5 7,9 23 12 33 18 W 1024,3 50 0,0
20.05.2018 00:00:00 11,7 7,2 24 13 33 18 WZW 1024,1 50 0,0
19.05.2018 23:00:00 11,6 6,5 21 12 30 16 WZW 1024,0 50 0,0
19.05.2018 22:00:00 11,4 6,7 18 10 27 15 WZW 1023,9 50 0,0
19.05.2018 21:00:00 11,6 6,6 17 9 27 15 ZW 1023,7 50 0,0
19.05.2018 20:00:00 12,0 7,4 18 10 23 12 ZW 1023,5 50 0,0
19.05.2018 19:00:00 12,9 7,7 15 8 22 12 ZW 1023,8 50 0,0
19.05.2018 18:00:00 12,8 7,9 15 8 24 13 ZW 1024,0 43 0,0
19.05.2018 17:00:00 13,4 6,8 16 8 27 15 ZZW 1024,0 43 0,0
19.05.2018 16:00:00 13,2 6,8 17 9 27 15 ZZW 1024,0 43 0,0
19.05.2018 15:00:00 13,9 6,1 16 9 24 13 ZZW 1024,1 44 0,0
19.05.2018 14:00:00 14,1 5,7 16 8 20 11 ZZW 1024,4 46 0,0
19.05.2018 13:00:00 - - - - - - - - - -
19.05.2018 12:00:00 14,4 5,7 11 6 14 7 Z 1024,4 46 0,0
19.05.2018 11:00:00 14,7 -0,3 7 4 12 6 ZZO 1024,4 43 0,0
19.05.2018 10:00:00 14,8 -0,4 3 1 13 7 ONO 1024,2 47 0,0
19.05.2018 09:00:00 13,4 3,5 3 1 16 8 O 1023,9 45 0,0
19.05.2018 08:00:00 12,2 5,6 9 5 19 10 NNW 1023,5 49 0,0
19.05.2018 07:00:00 11,9 2,1 11 6 18 10 NNW 1022,9 50 0,0
19.05.2018 06:00:00 10,3 2,0 12 7 22 12 N 1022,5 50 0,0
19.05.2018 05:00:00 9,3 3,8 14 8 22 12 NNW 1022,2 50 0,0
19.05.2018 04:00:00 9,4 4,7 15 8 20 11 NNW 1021,9 50 0,0
19.05.2018 03:00:00 9,8 4,8 14 8 19 10 NNW 1021,7 50 0,0
19.05.2018 02:00:00 10,1 5,6 15 8 19 10 NNW 1021,4 50 0,0
19.05.2018 01:00:00 11,0 4,2 15 8 19 10 NNW 1021,4 50 0,0
19.05.2018 00:00:00 10,9 2,8 13 7 18 10 NNW 1021,2 50 0,0
18.05.2018 23:00:00 12,0 1,0 13 7 19 10 N 1021,0 50 0,0
18.05.2018 22:00:00 11,7 4,3 11 6 19 10 NNO 1020,7 50 0,0
18.05.2018 21:00:00 12,5 5,3 6 4 14 7 N 1020,1 50 0,0
18.05.2018 20:00:00 10,6 3,9 3 2 12 7 O 1019,9 46 0,0
18.05.2018 19:00:00 10,4 5,0 9 5 16 9 ZO 1019,6 43 0,0
18.05.2018 18:00:00 11,5 5,3 9 5 18 10 ZZO 1019,3 37 0,0
18.05.2018 17:00:00 12,6 6,3 13 7 19 10 OZO 1019,2 33 0,0
18.05.2018 16:00:00 13,5 6,3 14 8 24 13 OZO 1018,9 35 0,0
18.05.2018 15:00:00 14,9 0,1 10 6 28 15 NNO 1018,8 44 0,0
18.05.2018 14:00:00 14,3 2,9 16 9 35 19 NO 1018,7 42 0,0
18.05.2018 13:00:00 13,7 4,3 27 15 40 21 NO 1018,6 31 0,0
18.05.2018 12:00:00 13,5 3,6 30 16 45 24 NO 1018,4 45 0,0
18.05.2018 11:00:00 13,3 3,7 35 19 52 28 NO 1018,1 30 0,0
18.05.2018 10:00:00 13,8 2,9 33 18 52 28 NNO 1017,8 46 0,0
18.05.2018 09:00:00 13,5 2,8 31 17 44 24 NNO 1017,2 43 0,0
18.05.2018 08:00:00 13,0 2,1 25 13 42 23 NNO 1016,7 46 0,0
18.05.2018 07:00:00 12,2 1,0 22 12 35 19 N 1016,0 47 0,0
18.05.2018 06:00:00 10,7 0,9 18 10 32 17 N 1015,9 50 0,0
18.05.2018 05:00:00 10,3 0,9 19 10 33 18 N 1015,6 50 0,0
18.05.2018 04:00:00 10,4 0,8 19 11 33 18 N 1015,7 50 0,0
18.05.2018 03:00:00 11,0 1,0 18 10 43 23 N 1015,4 50 0,0
18.05.2018 02:00:00 11,1 2,3 21 11 43 23 N 1015,3 50 0,0
18.05.2018 01:00:00 11,2 1,7 20 11 39 21 N 1015,6 50 0,0
18.05.2018 00:00:00 11,3 2,5 19 10 39 21 N 1015,8 50 0,0
17.05.2018 23:00:00 11,5 2,9 21 11 37 20 N 1015,5 50 0,0
17.05.2018 22:00:00 12,0 4,2 23 13 37 20 N 1015,5 50 0,0

tt = temperatuur
td = dauwpunt
ff = windsnelheid
fx = windstoten
dd = windrichting
ppp = luchtdruk
vv = zicht
rr = neerslag

Weerstations in de omgeving